Llagostera





Hora UTC 10:15
Temperatura 14.7 ºC
Humitat 76.0 %
Pressió 1014.0 hPa
Pluja 1.2 mm
Velocitat vent 1.6 km/h
Direcció vent

Dades diàries 2021-05-14



Hora UTC (hivern +1h; estiu +2h)
Temperatura (ºC) Humitat (%) Pressió (hPa) Velocitat vent (km/h) Precipitació (mm)
Hora UTC Aire Humitat Pressió Vel. Dir. Vel. Max Dir. Intent. màx 5 min.
00:05 11.8 81.0 1011.0 0.0 0.0 0.0
00:15 11.5 81.0 1011.0 3.2 8.0 0.0
00:25 11.4 82.0 1010.9 0.0 8.0 0.0
00:35 11.4 82.0 1010.9 1.6 8.0 0.0
00:45 11.3 81.0 1010.9 0.0 8.0 0.0
00:55 10.8 81.0 1011.0 1.6 8.0 0.0
01:05 10.6 82.0 1011.0 3.2 8.0 0.0
01:15 10.3 82.0 1011.0 3.2 8.0 0.0
01:25 10.3 84.0 1010.9 1.6 8.0 0.0
01:35 10.3 85.0 1010.7 1.6 8.0 0.0
01:45 10.4 85.0 1010.6 3.2 8.0 0.0
01:55 10.3 85.0 1010.5 1.6 8.0 0.0
02:05 10.3 85.0 1010.6 1.6 8.0 0.0
02:15 10.3 85.0 1010.5 4.8 8.0 0.0
02:25 10.5 87.0 1010.7 3.2 8.0 0.0
02:35 10.6 87.0 1010.7 0.0 8.0 0.0
02:45 10.9 87.0 1010.7 1.6 8.0 0.0
02:55 11.1 87.0 1010.5 1.6 8.0 0.0
03:05 11.3 87.0 1010.4 3.2 8.0 0.0
03:15 11.7 86.0 1010.5 3.2 9.7 0.0
03:25 12.0 83.0 1010.6 4.8 9.7 0.0
03:35 12.3 81.0 1010.5 4.8 9.7 0.0
03:45 12.3 80.0 1010.8 4.8 9.7 0.0
03:55 12.4 80.0 1010.8 1.6 9.7 0.0
04:05 12.4 78.0 1010.8 1.6 9.7 0.0
04:15 12.8 77.0 1011.0 1.6 9.7 0.0
04:25 12.7 77.0 1011.0 0.0 9.7 0.0
04:35 12.7 78.0 1011.0 0.0 9.7 0.0
04:45 12.6 76.0 1011.2 3.2 12.9 0.0
04:55 12.7 76.0 1011.0 3.2 12.9 0.0
05:05 12.7 76.0 1010.9 1.6 12.9 0.0
05:15 12.7 74.0 1011.1 6.4 17.7 0.0
05:25 12.8 73.0 1011.3 3.2 17.7 0.0
05:35 12.7 74.0 1011.2 8.0 19.3 0.0
05:45 12.6 73.0 1011.5 11.3 19.3 0.0
05:55 12.3 73.0 1011.6 9.7 19.3 0.0
06:05 12.0 72.0 1011.7 8.0 19.3 0.0
06:15 11.9 72.0 1011.8 4.8 19.3 0.0
06:25 11.9 72.0 1011.9 1.6 19.3 0.0
06:35 11.9 71.0 1011.9 3.2 19.3 0.0
06:45 11.9 71.0 1011.9 1.6 19.3 0.0
06:55 12.1 70.0 1012.2 1.6 19.3 0.0
07:05 12.2 71.0 1012.5 3.2 19.3 0.0
07:15 12.2 70.0 1012.6 4.8 19.3 0.0
07:25 12.2 73.0 1012.8 0.0 19.3 0.0
07:35 12.1 76.0 1012.8 0.0 19.3 0.2
07:45 12.1 78.0 1013.0 3.2 19.3 0.4
07:55 11.9 78.0 1013.2 1.6 19.3 0.4
08:05 11.8 76.0 1013.1 0.0 19.3 0.0
08:15 12.0 79.0 1013.2 3.2 19.3 0.0
08:25 11.9 77.0 1013.4 1.6 19.3 0.0
08:35 11.9 78.0 1013.4 1.6 19.3 0.0
08:45 12.1 79.0 1013.5 0.0 19.3 0.0
08:55 12.3 79.0 1013.7 0.0 19.3 0.2
09:05 13.0 80.0 1013.7 1.6 19.3 0.0
09:15 13.1 78.0 1013.6 4.8 19.3 0.0
09:25 13.8 78.0 1013.7 3.2 19.3 0.0
09:35 14.3 76.0 1013.8 3.2 19.3 0.0
09:45 14.4 74.0 1013.8 3.2 19.3 0.0
09:55 14.3 75.0 1013.9 0.0 19.3 0.0
10:05 14.5 76.0 1013.9 3.2 19.3 0.0
10:15 14.7 76.0 1014.0 1.6 19.3 0.0
Màxima 14.7 87.0 1014.0 11.3 19.3 0.4
Mínima 10.2 70.0 1010.4
Total 1.2